Year,Month,Day,Hour,Minute,Value (Times are PST for temperature in C)
2012,04,21,00,00,7.30
2012,04,21,00,01,7.30
2012,04,21,00,02,7.40
2012,04,21,00,03,7.40
2012,04,21,00,04,7.40
2012,04,21,00,05,7.40
2012,04,21,00,06,7.40
2012,04,21,00,07,7.40
2012,04,21,00,08,7.40
2012,04,21,00,09,7.40
2012,04,21,00,10,7.40
2012,04,21,00,11,7.40
2012,04,21,00,12,7.40
2012,04,21,00,13,7.30
2012,04,21,00,14,7.30
2012,04,21,00,15,7.30
2012,04,21,00,16,7.30
2012,04,21,00,17,7.20
2012,04,21,00,18,7.10
2012,04,21,00,19,7.10
2012,04,21,00,20,7.00
2012,04,21,00,21,7.00
2012,04,21,00,22,6.90
2012,04,21,00,23,6.90
2012,04,21,00,24,6.80
2012,04,21,00,25,6.80
2012,04,21,00,26,6.70
2012,04,21,00,27,6.70
2012,04,21,00,28,6.60
2012,04,21,00,29,6.60
2012,04,21,00,30,6.50
2012,04,21,00,31,6.40
2012,04,21,00,32,6.40
2012,04,21,00,33,6.40
2012,04,21,00,34,6.30
2012,04,21,00,35,6.20
2012,04,21,00,36,6.20
2012,04,21,00,37,6.20
2012,04,21,00,38,6.20
2012,04,21,00,39,6.20
2012,04,21,00,40,6.20
2012,04,21,00,41,6.20
2012,04,21,00,42,6.20
2012,04,21,00,43,6.20
2012,04,21,00,44,6.20
2012,04,21,00,45,6.20
2012,04,21,00,46,6.20
2012,04,21,00,47,6.20
2012,04,21,00,48,6.20
2012,04,21,00,49,6.20
2012,04,21,00,50,6.20
2012,04,21,00,51,6.10
2012,04,21,00,52,6.10
2012,04,21,00,53,6.10
2012,04,21,00,54,6.10
2012,04,21,00,55,6.00
2012,04,21,00,56,6.00
2012,04,21,00,57,6.00
2012,04,21,00,58,6.00
2012,04,21,00,59,5.90
2012,04,21,01,00,5.90
2012,04,21,01,01,5.90
2012,04,21,01,02,5.80
2012,04,21,01,03,5.80
2012,04,21,01,04,5.80
2012,04,21,01,05,5.70
2012,04,21,01,06,5.70
2012,04,21,01,07,5.70
2012,04,21,01,08,5.70
2012,04,21,01,09,5.70
2012,04,21,01,10,5.70
2012,04,21,01,11,5.70
2012,04,21,01,12,5.60
2012,04,21,01,13,5.60
2012,04,21,01,14,5.60
2012,04,21,01,15,5.60
2012,04,21,01,16,5.50
2012,04,21,01,17,5.50
2012,04,21,01,18,5.50
2012,04,21,01,19,5.50
2012,04,21,01,20,5.50
2012,04,21,01,21,5.50
2012,04,21,01,22,5.40
2012,04,21,01,23,5.40
2012,04,21,01,24,5.40
2012,04,21,01,25,5.40
2012,04,21,01,26,5.40
2012,04,21,01,27,5.40
2012,04,21,01,28,5.40
2012,04,21,01,29,5.40
2012,04,21,01,30,5.30
2012,04,21,01,31,5.30
2012,04,21,01,32,5.30
2012,04,21,01,33,5.30
2012,04,21,01,34,5.30
2012,04,21,01,35,5.30
2012,04,21,01,36,5.30
2012,04,21,01,37,5.30
2012,04,21,01,38,5.30
2012,04,21,01,39,5.30
2012,04,21,01,40,5.30
2012,04,21,01,41,5.40
2012,04,21,01,42,5.40
2012,04,21,01,43,5.50
2012,04,21,01,44,5.50
2012,04,21,01,45,5.60
2012,04,21,01,46,5.60
2012,04,21,01,47,5.70
2012,04,21,01,48,5.70
2012,04,21,01,49,5.70
2012,04,21,01,50,5.70
2012,04,21,01,51,5.70
2012,04,21,01,52,5.70
2012,04,21,01,53,5.70
2012,04,21,01,54,5.70
2012,04,21,01,55,5.70
2012,04,21,01,56,5.70
2012,04,21,01,57,5.70
2012,04,21,01,58,5.70
2012,04,21,01,59,5.70
2012,04,21,02,00,5.70
2012,04,21,02,01,5.70
2012,04,21,02,02,5.70
2012,04,21,02,03,5.70
2012,04,21,02,04,5.80
2012,04,21,02,05,5.80
2012,04,21,02,06,5.80
2012,04,21,02,07,5.90
2012,04,21,02,08,5.90
2012,04,21,02,09,5.90
2012,04,21,02,10,5.90
2012,04,21,02,11,5.90
2012,04,21,02,12,5.80
2012,04,21,02,13,5.80
2012,04,21,02,14,5.80
2012,04,21,02,15,5.80
2012,04,21,02,16,5.70
2012,04,21,02,17,5.70
2012,04,21,02,18,5.70
2012,04,21,02,19,5.70
2012,04,21,02,20,5.70
2012,04,21,02,21,5.60
2012,04,21,02,22,5.60
2012,04,21,02,23,5.50
2012,04,21,02,24,5.50
2012,04,21,02,25,5.50
2012,04,21,02,26,5.40
2012,04,21,02,27,5.40
2012,04,21,02,28,5.40
2012,04,21,02,29,5.40
2012,04,21,02,30,5.40
2012,04,21,02,31,5.40
2012,04,21,02,32,5.40
2012,04,21,02,33,5.40
2012,04,21,02,34,5.30
2012,04,21,02,35,5.30
2012,04,21,02,36,5.30
2012,04,21,02,37,5.30
2012,04,21,02,38,5.30
2012,04,21,02,39,5.30
2012,04,21,02,40,5.30
2012,04,21,02,41,5.30
2012,04,21,02,42,5.30
2012,04,21,02,43,5.30
2012,04,21,02,44,5.30
2012,04,21,02,45,5.30
2012,04,21,02,46,5.30
2012,04,21,02,47,5.30
2012,04,21,02,48,5.20
2012,04,21,02,49,5.20
2012,04,21,02,50,5.20
2012,04,21,02,51,5.20
2012,04,21,02,52,5.20
2012,04,21,02,53,5.10
2012,04,21,02,54,5.10
2012,04,21,02,55,5.10
2012,04,21,02,56,5.10
2012,04,21,02,57,5.10
2012,04,21,02,58,5.10
2012,04,21,02,59,5.10
2012,04,21,03,00,5.10
2012,04,21,03,01,5.10
2012,04,21,03,02,5.10
2012,04,21,03,03,5.10
2012,04,21,03,04,5.10
2012,04,21,03,05,5.10
2012,04,21,03,06,5.00
2012,04,21,03,07,4.90
2012,04,21,03,08,4.90
2012,04,21,03,09,4.90
2012,04,21,03,10,4.90
2012,04,21,03,11,4.90
2012,04,21,03,12,4.90
2012,04,21,03,13,4.90
2012,04,21,03,14,4.80
2012,04,21,03,15,4.80
2012,04,21,03,16,4.80
2012,04,21,03,17,4.80
2012,04,21,03,18,4.80
2012,04,21,03,19,4.70
2012,04,21,03,20,4.70
2012,04,21,03,21,4.70
2012,04,21,03,22,4.70
2012,04,21,03,23,4.70
2012,04,21,03,24,4.60
2012,04,21,03,25,4.60
2012,04,21,03,26,4.60
2012,04,21,03,27,4.60
2012,04,21,03,28,4.60
2012,04,21,03,29,4.60
2012,04,21,03,30,4.60
2012,04,21,03,31,4.50
2012,04,21,03,32,4.50
2012,04,21,03,33,4.50
2012,04,21,03,34,4.50
2012,04,21,03,35,4.40
2012,04,21,03,36,4.40
2012,04,21,03,37,4.40
2012,04,21,03,38,4.40
2012,04,21,03,39,4.40
2012,04,21,03,40,4.40
2012,04,21,03,41,4.40
2012,04,21,03,42,4.40
2012,04,21,03,43,4.40
2012,04,21,03,44,4.40
2012,04,21,03,45,4.40
2012,04,21,03,46,4.40
2012,04,21,03,47,4.40
2012,04,21,03,48,4.40
2012,04,21,03,49,4.40
2012,04,21,03,50,4.40
2012,04,21,03,51,4.40
2012,04,21,03,52,4.40
2012,04,21,03,53,4.40
2012,04,21,03,54,4.30
2012,04,21,03,55,4.30
2012,04,21,03,56,4.30
2012,04,21,03,57,4.30
2012,04,21,03,58,4.30
2012,04,21,03,59,4.30
2012,04,21,04,00,4.30
2012,04,21,04,01,4.30
2012,04,21,04,02,4.30
2012,04,21,04,03,4.30
2012,04,21,04,04,4.30
2012,04,21,04,05,4.20
2012,04,21,04,06,4.20
2012,04,21,04,07,4.20
2012,04,21,04,08,4.20
2012,04,21,04,09,4.20
2012,04,21,04,10,4.20
2012,04,21,04,11,4.20
2012,04,21,04,12,4.20
2012,04,21,04,13,4.20
2012,04,21,04,14,4.20
2012,04,21,04,15,4.20
2012,04,21,04,16,4.20
2012,04,21,04,17,4.20
2012,04,21,04,18,4.20
2012,04,21,04,19,4.20
2012,04,21,04,20,4.20
2012,04,21,04,21,4.20
2012,04,21,04,22,4.20
2012,04,21,04,23,4.20
2012,04,21,04,24,4.20
2012,04,21,04,25,4.20
2012,04,21,04,26,4.20
2012,04,21,04,27,4.20
2012,04,21,04,28,4.20
2012,04,21,04,29,4.20
2012,04,21,04,30,4.20
2012,04,21,04,31,4.20
2012,04,21,04,32,4.20
2012,04,21,04,33,4.20
2012,04,21,04,34,4.20
2012,04,21,04,35,4.20
2012,04,21,04,36,4.20
2012,04,21,04,37,4.20
2012,04,21,04,38,4.20
2012,04,21,04,39,4.20
2012,04,21,04,40,4.20
2012,04,21,04,41,4.20
2012,04,21,04,42,4.20
2012,04,21,04,43,4.20
2012,04,21,04,44,4.20
2012,04,21,04,45,4.20
2012,04,21,04,46,4.20
2012,04,21,04,47,4.20
2012,04,21,04,48,4.20
2012,04,21,04,49,4.30
2012,04,21,04,50,4.30
2012,04,21,04,51,4.30
2012,04,21,04,52,4.30
2012,04,21,04,53,4.30
2012,04,21,04,54,4.30
2012,04,21,04,55,4.30
2012,04,21,04,56,4.30
2012,04,21,04,57,4.30
2012,04,21,04,58,4.30
2012,04,21,04,59,4.40
2012,04,21,05,00,4.40
2012,04,21,05,01,4.40
2012,04,21,05,02,4.40
2012,04,21,05,03,4.30
2012,04,21,05,04,4.30
2012,04,21,05,05,4.30
2012,04,21,05,06,4.30
2012,04,21,05,07,4.30
2012,04,21,05,08,4.20
2012,04,21,05,09,4.20
2012,04,21,05,10,4.20
2012,04,21,05,11,4.20
2012,04,21,05,12,4.20
2012,04,21,05,13,4.20
2012,04,21,05,14,4.20
2012,04,21,05,15,4.20
2012,04,21,05,16,4.20
2012,04,21,05,17,4.20
2012,04,21,05,18,4.20
2012,04,21,05,19,4.20
2012,04,21,05,20,4.20
2012,04,21,05,21,4.30
2012,04,21,05,22,4.30
2012,04,21,05,23,4.40
2012,04,21,05,24,4.40
2012,04,21,05,25,4.50
2012,04,21,05,26,4.60
2012,04,21,05,27,4.60
2012,04,21,05,28,4.60
2012,04,21,05,29,4.60
2012,04,21,05,30,4.60
2012,04,21,05,31,4.60
2012,04,21,05,32,4.60
2012,04,21,05,33,4.60
2012,04,21,05,34,4.70
2012,04,21,05,35,4.70
2012,04,21,05,36,4.80
2012,04,21,05,37,4.80
2012,04,21,05,38,4.80
2012,04,21,05,39,4.90
2012,04,21,05,40,4.90
2012,04,21,05,41,4.90
2012,04,21,05,42,4.90
2012,04,21,05,43,4.90
2012,04,21,05,44,4.90
2012,04,21,05,45,4.90
2012,04,21,05,46,4.90
2012,04,21,05,47,4.90
2012,04,21,05,48,4.90
2012,04,21,05,49,4.90
2012,04,21,05,50,4.90
2012,04,21,05,51,4.90
2012,04,21,05,52,4.90
2012,04,21,05,53,4.90
2012,04,21,05,54,4.90
2012,04,21,05,55,4.80
2012,04,21,05,56,4.80
2012,04,21,05,57,4.80
2012,04,21,05,58,4.80
2012,04,21,05,59,4.80
2012,04,21,06,00,4.80
2012,04,21,06,01,4.80
2012,04,21,06,02,4.80
2012,04,21,06,03,4.80
2012,04,21,06,04,4.70
2012,04,21,06,05,4.70
2012,04,21,06,06,4.70
2012,04,21,06,07,4.70
2012,04,21,06,08,4.70
2012,04,21,06,09,4.70
2012,04,21,06,10,4.70
2012,04,21,06,11,4.60
2012,04,21,06,12,4.60
2012,04,21,06,13,4.60
2012,04,21,06,14,4.60
2012,04,21,06,15,4.60
2012,04,21,06,16,4.60
2012,04,21,06,17,4.60
2012,04,21,06,18,4.60
2012,04,21,06,19,4.60
2012,04,21,06,20,4.60
2012,04,21,06,21,4.60
2012,04,21,06,22,4.60
2012,04,21,06,23,4.70
2012,04,21,06,24,4.70
2012,04,21,06,25,4.70
2012,04,21,06,26,4.80
2012,04,21,06,27,4.80
2012,04,21,06,28,4.80
2012,04,21,06,29,4.80
2012,04,21,06,30,4.90
2012,04,21,06,31,4.90
2012,04,21,06,32,4.90
2012,04,21,06,33,4.90
2012,04,21,06,34,4.90
2012,04,21,06,35,4.90
2012,04,21,06,36,5.00
2012,04,21,06,37,5.10
2012,04,21,06,38,5.10
2012,04,21,06,39,5.10
2012,04,21,06,40,5.10
2012,04,21,06,41,5.10
2012,04,21,06,42,5.10
2012,04,21,06,43,5.10
2012,04,21,06,44,5.20
2012,04,21,06,45,5.20
2012,04,21,06,46,5.20
2012,04,21,06,47,5.20
2012,04,21,06,48,5.20
2012,04,21,06,49,5.30
2012,04,21,06,50,5.30
2012,04,21,06,51,5.30
2012,04,21,06,52,5.30
2012,04,21,06,53,5.30
2012,04,21,06,54,5.30
2012,04,21,06,55,5.30
2012,04,21,06,56,5.30
2012,04,21,06,57,5.40
2012,04,21,06,58,5.40
2012,04,21,06,59,5.50
2012,04,21,07,00,5.50
2012,04,21,07,01,5.50
2012,04,21,07,02,5.60
2012,04,21,07,03,5.60
2012,04,21,07,04,5.60
2012,04,21,07,05,5.70
2012,04,21,07,06,5.70
2012,04,21,07,07,5.70
2012,04,21,07,08,5.70
2012,04,21,07,09,5.80
2012,04,21,07,10,5.80
2012,04,21,07,11,5.90
2012,04,21,07,12,6.00
2012,04,21,07,13,6.00
2012,04,21,07,14,6.10
2012,04,21,07,15,6.10
2012,04,21,07,16,6.20
2012,04,21,07,17,6.20
2012,04,21,07,18,6.20
2012,04,21,07,19,6.30
2012,04,21,07,20,6.30
2012,04,21,07,21,6.40
2012,04,21,07,22,6.40
2012,04,21,07,23,6.40
2012,04,21,07,24,6.40
2012,04,21,07,25,6.40
2012,04,21,07,26,6.50
2012,04,21,07,27,6.60
2012,04,21,07,28,6.60
2012,04,21,07,29,6.60
2012,04,21,07,30,6.60
2012,04,21,07,31,6.60
2012,04,21,07,32,6.70
2012,04,21,07,33,6.70
2012,04,21,07,34,6.80
2012,04,21,07,35,6.80
2012,04,21,07,36,6.80
2012,04,21,07,37,6.80
2012,04,21,07,38,6.90
2012,04,21,07,39,6.90
2012,04,21,07,40,7.00
2012,04,21,07,41,7.00
2012,04,21,07,42,7.00
2012,04,21,07,43,7.10
2012,04,21,07,44,7.10
2012,04,21,07,45,7.10
2012,04,21,07,46,7.20
2012,04,21,07,47,7.20
2012,04,21,07,48,7.30
2012,04,21,07,49,7.30
2012,04,21,07,50,7.30
2012,04,21,07,51,7.30
2012,04,21,07,52,7.40
2012,04,21,07,53,7.40
2012,04,21,07,54,7.50
2012,04,21,07,55,7.50
2012,04,21,07,56,7.50
2012,04,21,07,57,7.60
2012,04,21,07,58,7.60
2012,04,21,07,59,7.60
2012,04,21,08,00,7.70
2012,04,21,08,01,7.70
2012,04,21,08,02,7.80
2012,04,21,08,03,7.80
2012,04,21,08,04,7.80
2012,04,21,08,05,7.80
2012,04,21,08,06,7.90
2012,04,21,08,07,7.90
2012,04,21,08,08,7.90
2012,04,21,08,09,8.00
2012,04,21,08,10,8.00
2012,04,21,08,11,8.10
2012,04,21,08,12,8.10
2012,04,21,08,13,8.20
2012,04,21,08,14,8.20
2012,04,21,08,15,8.30
2012,04,21,08,16,8.30
2012,04,21,08,17,8.40
2012,04,21,08,18,8.40
2012,04,21,08,19,8.50
2012,04,21,08,20,8.50
2012,04,21,08,21,8.60
2012,04,21,08,22,8.60
2012,04,21,08,23,8.60
2012,04,21,08,24,8.70
2012,04,21,08,25,8.70
2012,04,21,08,26,8.70
2012,04,21,08,27,8.70
2012,04,21,08,28,8.70
2012,04,21,08,29,8.70
2012,04,21,08,30,8.70
2012,04,21,08,31,8.70
2012,04,21,08,32,8.70
2012,04,21,08,33,8.80
2012,04,21,08,34,8.80
2012,04,21,08,35,8.90
2012,04,21,08,36,8.90
2012,04,21,08,37,9.00
2012,04,21,08,38,9.00
2012,04,21,08,39,9.00
2012,04,21,08,40,9.00
2012,04,21,08,41,9.00
2012,04,21,08,42,9.00
2012,04,21,08,43,9.10
2012,04,21,08,44,9.10
2012,04,21,08,45,9.20
2012,04,21,08,46,9.20
2012,04,21,08,47,9.20
2012,04,21,08,48,9.20
2012,04,21,08,49,9.30
2012,04,21,08,50,9.30
2012,04,21,08,51,9.30
2012,04,21,08,52,9.30
2012,04,21,08,53,9.40
2012,04,21,08,54,9.40
2012,04,21,08,55,9.40
2012,04,21,08,56,9.40
2012,04,21,08,57,9.50
2012,04,21,08,58,9.50
2012,04,21,08,59,9.60
2012,04,21,09,00,9.70
2012,04,21,09,01,9.70
2012,04,21,09,02,9.70
2012,04,21,09,03,9.70
2012,04,21,09,04,9.70
2012,04,21,09,05,9.70
2012,04,21,09,06,9.70
2012,04,21,09,07,9.70
2012,04,21,09,08,9.70
2012,04,21,09,09,9.70
2012,04,21,09,10,9.70
2012,04,21,09,11,9.70
2012,04,21,09,12,9.80
2012,04,21,09,13,9.80
2012,04,21,09,14,9.80
2012,04,21,09,15,9.90
2012,04,21,09,16,9.90
2012,04,21,09,17,10.10
2012,04,21,09,18,10.10
2012,04,21,09,19,10.10
2012,04,21,09,20,10.10
2012,04,21,09,21,10.10
2012,04,21,09,22,10.10
2012,04,21,09,23,10.10
2012,04,21,09,24,10.10
2012,04,21,09,25,10.10
2012,04,21,09,26,10.10
2012,04,21,09,27,10.10
2012,04,21,09,28,10.10
2012,04,21,09,29,10.10
2012,04,21,09,30,10.10
2012,04,21,09,31,10.10
2012,04,21,09,32,10.10
2012,04,21,09,33,10.10
2012,04,21,09,34,10.20
2012,04,21,09,35,10.20
2012,04,21,09,36,10.20
2012,04,21,09,37,10.30
2012,04,21,09,38,10.30
2012,04,21,09,39,10.40
2012,04,21,09,40,10.40
2012,04,21,09,41,10.40
2012,04,21,09,42,10.40
2012,04,21,09,43,10.40
2012,04,21,09,44,10.40
2012,04,21,09,45,10.40
2012,04,21,09,46,10.40
2012,04,21,09,47,10.30
2012,04,21,09,48,10.30
2012,04,21,09,49,10.20
2012,04,21,09,50,10.20
2012,04,21,09,51,10.20
2012,04,21,09,52,10.30
2012,04,21,09,53,10.30
2012,04,21,09,54,10.40
2012,04,21,09,55,10.50
2012,04,21,09,56,10.60
2012,04,21,09,57,10.60
2012,04,21,09,58,10.70
2012,04,21,09,59,10.80
2012,04,21,10,00,10.80
2012,04,21,10,01,10.80
2012,04,21,10,02,10.80
2012,04,21,10,03,10.80
2012,04,21,10,04,10.80
2012,04,21,10,05,10.80
2012,04,21,10,06,10.80
2012,04,21,10,07,10.90
2012,04,21,10,08,10.90
2012,04,21,10,09,10.90
2012,04,21,10,10,10.90
2012,04,21,10,11,11.00
2012,04,21,10,12,11.10
2012,04,21,10,13,11.10
2012,04,21,10,14,11.20
2012,04,21,10,15,11.30
2012,04,21,10,16,11.30
2012,04,21,10,17,11.40
2012,04,21,10,18,11.50
2012,04,21,10,19,11.60
2012,04,21,10,20,11.60
2012,04,21,10,21,11.60
2012,04,21,10,22,11.70
2012,04,21,10,23,11.70
2012,04,21,10,24,11.70
2012,04,21,10,25,11.70
2012,04,21,10,26,11.60
2012,04,21,10,27,11.70
2012,04,21,10,28,11.70
2012,04,21,10,29,11.80
2012,04,21,10,30,11.80
2012,04,21,10,31,11.80
2012,04,21,10,32,11.70
2012,04,21,10,33,11.70
2012,04,21,10,34,11.70
2012,04,21,10,35,11.80
2012,04,21,10,36,11.80
2012,04,21,10,37,11.80
2012,04,21,10,38,11.80
2012,04,21,10,39,11.80
2012,04,21,10,40,11.80
2012,04,21,10,41,11.80
2012,04,21,10,42,11.80
2012,04,21,10,43,11.80
2012,04,21,10,44,11.80
2012,04,21,10,45,11.70
2012,04,21,10,46,11.80
2012,04,21,10,47,11.80
2012,04,21,10,48,11.80
2012,04,21,10,49,11.90
2012,04,21,10,50,11.90
2012,04,21,10,51,12.00
2012,04,21,10,52,12.00
2012,04,21,10,53,11.90
2012,04,21,10,54,11.90
2012,04,21,10,55,11.90
2012,04,21,10,56,12.00
2012,04,21,10,57,12.00
2012,04,21,10,58,12.00
2012,04,21,10,59,12.00
2012,04,21,11,00,12.00
2012,04,21,11,01,12.00
2012,04,21,11,02,12.00
2012,04,21,11,03,11.90
2012,04,21,11,04,11.90
2012,04,21,11,05,12.00
2012,04,21,11,06,12.10
2012,04,21,11,07,12.00
2012,04,21,11,08,12.00
2012,04,21,11,09,11.90
2012,04,21,11,10,11.90
2012,04,21,11,11,11.90
2012,04,21,11,12,11.80
2012,04,21,11,13,11.80
2012,04,21,11,14,11.80
2012,04,21,11,15,11.80
2012,04,21,11,16,11.90
2012,04,21,11,17,11.90
2012,04,21,11,18,12.00
2012,04,21,11,19,12.00
2012,04,21,11,20,12.00
2012,04,21,11,21,12.00
2012,04,21,11,22,12.00
2012,04,21,11,23,12.00
2012,04,21,11,24,12.10
2012,04,21,11,25,12.20
2012,04,21,11,26,12.30
2012,04,21,11,27,12.30
2012,04,21,11,28,12.30
2012,04,21,11,29,12.30
2012,04,21,11,30,12.40
2012,04,21,11,31,12.40
2012,04,21,11,32,12.40
2012,04,21,11,33,12.30
2012,04,21,11,34,12.30
2012,04,21,11,35,12.30
2012,04,21,11,36,12.30
2012,04,21,11,37,12.30
2012,04,21,11,38,12.30
2012,04,21,11,39,12.30
2012,04,21,11,40,12.30
2012,04,21,11,41,12.30
2012,04,21,11,42,12.30
2012,04,21,11,43,12.30
2012,04,21,11,44,12.30
2012,04,21,11,45,12.30
2012,04,21,11,46,12.30
2012,04,21,11,47,12.30
2012,04,21,11,48,12.30
2012,04,21,11,49,12.30
2012,04,21,11,50,12.30
2012,04,21,11,51,12.30
2012,04,21,11,52,12.30
2012,04,21,11,53,12.30
2012,04,21,11,54,12.40
2012,04,21,11,55,12.50
2012,04,21,11,56,12.50
2012,04,21,11,57,12.60
2012,04,21,11,58,12.80
2012,04,21,11,59,12.80
2012,04,21,12,00,12.80
2012,04,21,12,01,12.80
2012,04,21,12,02,12.80
2012,04,21,12,03,12.80
2012,04,21,12,04,12.80
2012,04,21,12,05,12.70
2012,04,21,12,06,12.70
2012,04,21,12,07,12.70
2012,04,21,12,08,12.60
2012,04,21,12,09,12.70
2012,04,21,12,10,12.70
2012,04,21,12,11,12.60
2012,04,21,12,12,12.60
2012,04,21,12,13,12.50
2012,04,21,12,14,12.50
2012,04,21,12,15,12.50
2012,04,21,12,16,12.40
2012,04,21,12,17,12.50
2012,04,21,12,18,12.50
2012,04,21,12,19,12.50
2012,04,21,12,20,12.50
2012,04,21,12,21,12.60
2012,04,21,12,22,12.60
2012,04,21,12,23,12.70
2012,04,21,12,24,12.80
2012,04,21,12,25,12.80
2012,04,21,12,26,12.80
2012,04,21,12,27,12.80
2012,04,21,12,28,12.80
2012,04,21,12,29,12.90
2012,04,21,12,30,12.90
2012,04,21,12,31,12.90
2012,04,21,12,32,12.70
2012,04,21,12,33,12.70
2012,04,21,12,34,12.70
2012,04,21,12,35,12.70
2012,04,21,12,36,12.70
2012,04,21,12,37,12.80
2012,04,21,12,38,12.80
2012,04,21,12,39,12.70
2012,04,21,12,40,12.70
2012,04,21,12,41,12.60
2012,04,21,12,42,12.40
2012,04,21,12,43,12.30
2012,04,21,12,44,12.30
2012,04,21,12,45,12.30
2012,04,21,12,46,12.30
2012,04,21,12,47,12.30
2012,04,21,12,48,12.30
2012,04,21,12,49,12.40
2012,04,21,12,50,12.50
2012,04,21,12,51,12.50
2012,04,21,12,52,12.60
2012,04,21,12,53,12.60
2012,04,21,12,54,12.60
2012,04,21,12,55,12.70
2012,04,21,12,56,12.80
2012,04,21,12,57,12.70
2012,04,21,12,58,12.70
2012,04,21,12,59,12.70
2012,04,21,13,00,12.70
2012,04,21,13,01,12.60
2012,04,21,13,02,12.60
2012,04,21,13,03,12.60
2012,04,21,13,04,12.60
2012,04,21,13,05,12.70
2012,04,21,13,06,12.80
2012,04,21,13,07,12.80
2012,04,21,13,08,12.90
2012,04,21,13,09,13.00
2012,04,21,13,10,13.00
2012,04,21,13,11,13.10
2012,04,21,13,12,13.20
2012,04,21,13,13,13.20
2012,04,21,13,14,13.30
2012,04,21,13,15,13.30
2012,04,21,13,16,13.30
2012,04,21,13,17,13.30
2012,04,21,13,18,13.30
2012,04,21,13,19,13.30
2012,04,21,13,20,13.30
2012,04,21,13,21,13.30
2012,04,21,13,22,13.30
2012,04,21,13,23,13.40
2012,04,21,13,24,13.40
2012,04,21,13,25,13.50
2012,04,21,13,26,13.40
2012,04,21,13,27,13.50
2012,04,21,13,28,13.50
2012,04,21,13,29,13.60
2012,04,21,13,30,13.60
2012,04,21,13,31,13.60
2012,04,21,13,32,13.70
2012,04,21,13,33,13.70
2012,04,21,13,34,13.70
2012,04,21,13,35,13.70
2012,04,21,13,36,13.70
2012,04,21,13,37,13.70
2012,04,21,13,38,13.80
2012,04,21,13,39,13.90
2012,04,21,13,40,14.00
2012,04,21,13,41,14.00
2012,04,21,13,42,14.10
2012,04,21,13,43,14.20
2012,04,21,13,44,14.10
2012,04,21,13,45,14.10
2012,04,21,13,46,14.20
2012,04,21,13,47,14.10
2012,04,21,13,48,14.20
2012,04,21,13,49,14.20
2012,04,21,13,50,14.30
2012,04,21,13,51,14.40
2012,04,21,13,52,14.40
2012,04,21,13,53,14.50
2012,04,21,13,54,14.50
2012,04,21,13,55,14.50
2012,04,21,13,56,14.50
2012,04,21,13,57,14.50
2012,04,21,13,58,14.60
2012,04,21,13,59,14.60
2012,04,21,14,00,14.60
2012,04,21,14,01,14.60
2012,04,21,14,02,14.50
2012,04,21,14,03,14.50
2012,04,21,14,04,14.40
2012,04,21,14,05,14.30
2012,04,21,14,06,14.30
2012,04,21,14,07,14.30
2012,04,21,14,08,14.20
2012,04,21,14,09,14.20
2012,04,21,14,10,14.20
2012,04,21,14,11,14.20
2012,04,21,14,12,14.20
2012,04,21,14,13,14.30
2012,04,21,14,14,14.40
2012,04,21,14,15,14.50
2012,04,21,14,16,14.60
2012,04,21,14,17,14.60
2012,04,21,14,18,14.60
2012,04,21,14,19,14.50
2012,04,21,14,20,14.40
2012,04,21,14,21,14.40
2012,04,21,14,22,14.50
2012,04,21,14,23,14.40
2012,04,21,14,24,14.40
2012,04,21,14,25,14.40
2012,04,21,14,26,14.40
2012,04,21,14,27,14.30
2012,04,21,14,28,14.20
2012,04,21,14,29,14.20
2012,04,21,14,30,14.40
2012,04,21,14,31,14.50
2012,04,21,14,32,14.60
2012,04,21,14,33,14.70
2012,04,21,14,34,14.80
2012,04,21,14,35,14.70
2012,04,21,14,36,14.70
2012,04,21,14,37,14.70
2012,04,21,14,38,14.80
2012,04,21,14,39,14.80
2012,04,21,14,40,14.80
2012,04,21,14,41,14.90
2012,04,21,14,42,14.90
2012,04,21,14,43,14.90
2012,04,21,14,44,14.90
2012,04,21,14,45,15.00
2012,04,21,14,46,14.90
2012,04,21,14,47,14.80
2012,04,21,14,48,14.80
2012,04,21,14,49,14.80
2012,04,21,14,50,14.90
2012,04,21,14,51,14.90
2012,04,21,14,52,15.00
2012,04,21,14,53,15.00
2012,04,21,14,54,15.10
2012,04,21,14,55,15.10
2012,04,21,14,56,15.10
2012,04,21,14,57,15.20
2012,04,21,14,58,15.20
2012,04,21,14,59,15.20
2012,04,21,15,00,15.20
2012,04,21,15,01,15.20
2012,04,21,15,02,15.20
2012,04,21,15,03,15.30
2012,04,21,15,04,15.30
2012,04,21,15,05,15.20
2012,04,21,15,06,15.10
2012,04,21,15,07,15.10
2012,04,21,15,08,15.00
2012,04,21,15,09,15.00
2012,04,21,15,10,15.00
2012,04,21,15,11,15.10
2012,04,21,15,12,15.20
2012,04,21,15,13,15.30
2012,04,21,15,14,15.30
2012,04,21,15,15,15.10
2012,04,21,15,16,15.00
2012,04,21,15,17,15.00
2012,04,21,15,18,15.00
2012,04,21,15,19,14.90
2012,04,21,15,20,14.90
2012,04,21,15,21,14.90
2012,04,21,15,22,14.80
2012,04,21,15,23,14.80
2012,04,21,15,24,14.80
2012,04,21,15,25,14.80
2012,04,21,15,26,14.80
2012,04,21,15,27,14.90
2012,04,21,15,28,14.90
2012,04,21,15,29,14.90
2012,04,21,15,30,15.00
2012,04,21,15,31,15.00
2012,04,21,15,32,15.10
2012,04,21,15,33,15.10
2012,04,21,15,34,15.20
2012,04,21,15,35,15.20
2012,04,21,15,36,15.20
2012,04,21,15,37,15.20
2012,04,21,15,38,15.10
2012,04,21,15,39,15.10
2012,04,21,15,40,15.10
2012,04,21,15,41,15.20
2012,04,21,15,42,15.30
2012,04,21,15,43,15.30
2012,04,21,15,44,15.10
2012,04,21,15,45,15.00
2012,04,21,15,46,15.10
2012,04,21,15,47,15.20
2012,04,21,15,48,15.30
2012,04,21,15,49,15.30
2012,04,21,15,50,15.30
2012,04,21,15,51,15.40
2012,04,21,15,52,15.40
2012,04,21,15,53,15.50
2012,04,21,15,54,15.50
2012,04,21,15,55,15.40
2012,04,21,15,56,15.30
2012,04,21,15,57,15.20
2012,04,21,15,58,15.20
2012,04,21,15,59,15.30
2012,04,21,16,00,15.30
2012,04,21,16,01,15.30
2012,04,21,16,02,15.30
2012,04,21,16,03,15.30
2012,04,21,16,04,15.30
2012,04,21,16,05,15.30
2012,04,21,16,06,15.30
2012,04,21,16,07,15.30
2012,04,21,16,08,15.30
2012,04,21,16,09,15.40
2012,04,21,16,10,15.50
2012,04,21,16,11,15.50
2012,04,21,16,12,15.50
2012,04,21,16,13,15.60
2012,04,21,16,14,15.70
2012,04,21,16,15,15.60
2012,04,21,16,16,15.60
2012,04,21,16,17,15.70
2012,04,21,16,18,15.70
2012,04,21,16,19,15.60
2012,04,21,16,20,15.60
2012,04,21,16,21,15.50
2012,04,21,16,22,15.50
2012,04,21,16,23,15.60
2012,04,21,16,24,15.60
2012,04,21,16,25,15.60
2012,04,21,16,26,15.70
2012,04,21,16,27,15.70
2012,04,21,16,28,15.80
2012,04,21,16,29,15.80
2012,04,21,16,30,15.70
2012,04,21,16,31,15.70
2012,04,21,16,32,15.70
2012,04,21,16,33,15.60
2012,04,21,16,34,15.60
2012,04,21,16,35,15.60
2012,04,21,16,36,15.60
2012,04,21,16,37,15.60
2012,04,21,16,38,15.60
2012,04,21,16,39,15.60
2012,04,21,16,40,15.60
2012,04,21,16,41,15.70
2012,04,21,16,42,15.70
2012,04,21,16,43,15.70
2012,04,21,16,44,15.60
2012,04,21,16,45,15.60
2012,04,21,16,46,15.60
2012,04,21,16,47,15.60
2012,04,21,16,48,15.50
2012,04,21,16,49,15.50
2012,04,21,16,50,15.50
2012,04,21,16,51,15.50
2012,04,21,16,52,15.40
2012,04,21,16,53,15.40
2012,04,21,16,54,15.40
2012,04,21,16,55,15.40
2012,04,21,16,56,15.50
2012,04,21,16,57,15.60
2012,04,21,16,58,15.60
2012,04,21,16,59,15.70
2012,04,21,17,00,15.60
2012,04,21,17,01,15.60
2012,04,21,17,02,15.60
2012,04,21,17,03,15.60
2012,04,21,17,04,15.70
2012,04,21,17,05,15.80
2012,04,21,17,06,15.80
2012,04,21,17,07,15.80
2012,04,21,17,08,15.80
2012,04,21,17,09,15.80
2012,04,21,17,10,15.70
2012,04,21,17,11,15.60
2012,04,21,17,12,15.50
2012,04,21,17,13,15.50
2012,04,21,17,14,15.40
2012,04,21,17,15,15.30
2012,04,21,17,16,15.30
2012,04,21,17,17,15.20
2012,04,21,17,18,15.10
2012,04,21,17,19,15.00
2012,04,21,17,20,15.00
2012,04,21,17,21,15.00
2012,04,21,17,22,14.90
2012,04,21,17,23,15.00
2012,04,21,17,24,15.00
2012,04,21,17,25,14.90
2012,04,21,17,26,14.90
2012,04,21,17,27,14.90
2012,04,21,17,28,14.90
2012,04,21,17,29,14.90
2012,04,21,17,30,14.90
2012,04,21,17,31,14.80
2012,04,21,17,32,14.80
2012,04,21,17,33,14.90
2012,04,21,17,34,14.90
2012,04,21,17,35,15.00
2012,04,21,17,36,15.00
2012,04,21,17,37,15.10
2012,04,21,17,38,15.10
2012,04,21,17,39,15.10
2012,04,21,17,40,15.20
2012,04,21,17,41,15.20
2012,04,21,17,42,15.10
2012,04,21,17,43,15.10